Location: Martley
(52.2333°N, 2.3667°W)
Time: 05:00:18
(UTC+00:00)

ALOS - Pass Details

Date: 11 December 2019
Orbit: 684 x 685 km, 97.8° (Epoch: 18 January)

Event Time Altitude Azimuth Distance (km) Brightness Sun altitude
Rises 06:51:40 0° 7° (N) 3,066 5.4 -10.9°
Reaches altitude 10° 06:54:10 10° 355° (N) 2,145 4.5 -10.5°
Maximum altitude 06:58:07 27° 298° (WNW) 1,299 3.1 -10.0°
Drops below altitude 10° 07:02:02 10° 241° (WSW) 2,132 4.5 -9.4°
Sets 07:04:31 0° 230° (SW) 3,043 5.4 -9.1°
